Regional Weather Roundup
Issued by NWS Wakefield, VA

Home | Current Version | Previous Version | Graphics & Text | Print | Product List | Glossary On
Versions: 1 2 3 4 5 6 7 8 9 10 11 12 13 14 15 16 17 18 19 20 21 22 23 24 25 26 27 28 29 30 31 32 33 34 35 36 37 38 39 40 41 42 43 44 45 46 47 48 49 50
000
ASUS41 KAKQ 300015
RWRAKQ

REGIONAL WEATHER ROUNDUP
NATIONAL WEATHER SERVICE WAKEFIELD VA
800 PM EDT FRI APR 29 2016

Note: "fair" indicates few or no clouds below 12,000 feet with no
significant weather and/or obstructions to visibility. * = Denotes
station may not report precipitation (e.g., rain,snow,etc.),
thunder or fog.

VAZ042-051-052>054-056-300100-
NORTHERN VIRGINIA

CITY           SKY/WX    TMP DP  RH WIND       PRES   REMARKS
WASH NATIONAL  CLOUDY    53  50  89 NE8       30.06R
DULLES         DRIZZLE   54  49  83 NE7       30.05R
FORT BELVOIR   CLOUDY    54  50  85 VRB2      30.05R
QUANTICO       CLOUDY    56  50  80 SE5       30.05R
FREDERICKSBRG* CLOUDY    56  55  97 NE3       30.03R
STAFFORD*      CLOUDY    55  50  85 NE3       30.07S
WARRENTON      CLOUDY    56  48  76 NE3       30.03R
CULPEPER*      CLOUDY    55  53  91 CALM      30.04S
MANASSAS*      CLOUDY    55  52  88 NE5       30.05R
LEESBURG*      CLOUDY    54  52  94 CALM      30.06R
WINCHESTER     CLOUDY    52  50  93 NE3       30.05R FOG
FRONT ROYAL*   CLOUDY    54  50  87 NE7       30.02R
LURAY*         CLOUDY    55  54  94 N7        30.01R
$$

VAZ048-049-060>072-079>083-300100-
CENTRAL AND SOUTH CENTRAL VIRGINIA

CITY           SKY/WX    TMP DP  RH WIND       PRES   REMARKS
RICHMOND       CLOUDY    58  53  84 NE7       30.01R
CHESTERFIELD*  CLOUDY    61  45  55 E3        30.03R
PETERSBURG*    CLOUDY    61  55  81 E3        30.01R
HANOVER        CLOUDY    58  52  80 CALM      30.04R
TAPPAHANNOCK*  CLOUDY    56  54  92 N3        30.04R
QUINTON*       CLOUDY    57  54  89 CALM      30.01R
CHARLOTTSVILLE CLOUDY    55  51  86 NE6       30.03R FOG
GORDONSVILLE*  CLOUDY    54  54  98 CALM      30.03R
ORANGE*        CLOUDY    54  54 100 CALM      30.05R FOG
LOUISA*        CLOUDY    59  55  88 N5        30.03R
BUMPASS*       CLOUDY    56  54  92 CALM      30.03R
FARMVILLE*     CLOUDY    60  58  91 NE5       30.00R
CREWE*         CLOUDY    60  60  99 N3        29.99R
FORT PICKETT*  NOT AVBL
CHASE CITY*    FAIR      63  59  87 CALM      29.98R
CLARKSVILLE*   FAIR      63  59  88 E5        29.97R
SOUTH HILL*    FAIR      60  57  89 CALM      30.04R
LAWRENCEVILLE* FAIR      60  58  92 CALM      29.99R
EMPORIA*       FAIR      57  55  94 E3        30.01R
$$

VAZ088>098-300100-
SOUTHEAST VIRGINIA

CITY           SKY/WX    TMP DP  RH WIND       PRES   REMARKS
NORFOLK        CLOUDY    57  53  86 N8        30.01R
VIRGINIA BEACH DRZL/FOG  58  53  84 NE7       30.00R VSB 1
NORFOLK NAVAL  CLOUDY    58  54  86 NE8       30.03R
WEST POINT*    CLOUDY    57  53  89 NE3       30.03S
SALUDA*        CLOUDY    55  53  94 NE5       30.02R
NEWPORT NEWS   CLOUDY    57  54  89 E7        30.01R
LANGLEY AFB    CLOUDY    57  54  90 NE5       30.01R
FORT EUSTIS    CLOUDY    58  55  89 E5        29.99R
WILLIAMSBURG*  MOCLDY    59  57  94 CALM      30.01S
HR EXEC AP*    CLOUDY    57  54  88 E5        30.03R
FRANKLIN*      CLOUDY    60  55  82 E3        30.00S
US460-WAKEFLD  CLOUDY    60  54  80 CALM      30.00R
$$

VAZ020-022-025-037-045-300100-
WEST CENTRAL AND SOUTHWEST VIRGINIA

CITY           SKY/WX    TMP DP  RH WIND       PRES   REMARKS
STAUNTON*      MOCLDY    58  55  87 S3        30.03R
WAYNESBORO*    CLOUDY    53  50  90 MISG      30.01R
HOT SPRINGS VA FAIR      64  43  46 W14G23    30.03R
LYNCHBURG      CLOUDY    58  55  90 NE9       30.00R
DANVILLE       FAIR      70  60  70 E7        29.94R
SOUTH BOSTON*  FAIR      64  60  87 E5        29.96S
MARTINSVILLE   FAIR      68  59  74 CALM      29.96R
ROANOKE        FAIR      69  60  73 SE13      29.98R
BLACKSBURG     FAIR      72  47  40 CALM      30.02R
DUBLIN*        FAIR      73  47  39 W7        30.01R
MARION*        FAIR      70  51  50 W8        30.06R
HILLSVILLE*    FAIR      71  48  43 W6        30.02R
RICHLANDS*     FAIR      69  32  25 NW6       30.05S
WISE*          FAIR      68  37  32 NW3       30.08R
ABINGDON*      FAIR      73  49  44 W5        30.03R
$$

MDZ021>025-VAZ099-100-300100-
SOUTHERN MARYLAND AND THE DELMARVA PENINSULA

CITY           SKY/WX    TMP DP  RH WIND       PRES   REMARKS
PATUXENT RIVER DRIZZLE   53  50  89 NE5       30.04R FOG
BAY BRIDGE APT NOT AVBL
LEONARDTOWN    CLOUDY    52  50  93 NE3       30.05S
DOVER          CLOUDY    50  50 100 NE7       30.06R
GEORGETOWN     CLOUDY    50  48  93 NE8       30.05R FOG
EASTON         CLOUDY   N/A N/A N/A E7        30.08R HAZE
CAMBRIDGE      CLOUDY    50  48  93 NE6       30.04R
SALISBURY      CLOUDY    51  49  92 NE9       30.03R
OCEAN CITY     CLOUDY    50  48  93 NE12      30.04R FOG
WALLOPS ISLAND CLOUDY    53  48  83 N8        30.03R
ACCOMACK*      CLOUDY    52   0  11 NE8       30.02R
$$

NCZ012>017-030>032-300100-
NORTH CENTRAL AND EASTERN NORTH CAROLINA

CITY           SKY/WX    TMP DP  RH WIND       PRES   REMARKS
ROANOKE RAPIDS FAIR      61  57  88 CALM      29.99R
RALEIGH        MOCLDY    71  60  68 SE7       29.96R
ELIZABETH CITY CLOUDY    58  55  90 VRB7      30.00R
AHOSKIE*       CLOUDY    62  57  84 CALM      29.99S
EDENTON*       CLOUDY    63  60  90 NE3       30.00S
CURRITUCK*     CLOUDY    58  56  94 NE7       30.01R
KILL DEVIL HLS CLOUDY    56  54  95 N6        29.99S
MANTEO         NOT AVBL
CAPE HATTERAS  CLOUDY    62  58  86 NE9G18    29.99R
TARBORO*       FAIR      64  59  83 CALM      30.00R
GOLDSBORO      CLEAR     66  64  94 E5        29.96R
WASHINGTON     PTCLDY    63  58  85 CALM      29.99S
GREENVILLE     CLEAR     64  59  82 CALM      30.01R
NEW BERN       CLEAR     64  57  78 N5        29.99R
WILMINGTON     CLEAR     69  61  75 CALM      29.97R
$$

VAZ048-300100-
ELSEWHERE

CITY           SKY/WX    TMP DP  RH WIND       PRES   REMARKS
HARRISBURG PA  DRIZZLE   49  46  90 SE6       30.06R FOG
BALTIMORE      DRIZZLE   52  49  89 NE5       30.05R
ANNAPOLIS      CLOUDY    52  50  93 MISG      30.05S FOG
ANDREWS AFB    CLOUDY    51  50  95 NE7       30.04R FOG
PHILADELPHIA   CLOUDY    50  42  74 NE6       30.09R
HENDERSON NC   CLEAR     65  58  77 E5        29.98R
GREENSBORO     CLOUDY    75  53  46 SW5       29.93R
ROCKY MOUNT    CLEAR     64  58  80 CALM      29.99R
$$

VAZ100-300100-
MARINE

STATION/POSITION TIME  TEMP    WIND        PRES    WAVE   SWELL
                       AIR SEA DIR/SP/G            HT/PER HT/PER
                 (UTC) (F)     (DEG/KT/KT) (MB)    (FT/S) (FT/S)
BRANDYWINE LGT   2300   50                   N/A
CAPE MAY NJ      2300   49 57                N/A
LEWES DE         2300   51 54                N/A
15NM E FENWICK I 2350   50 50              1016.4R   7/ 8
OCEAN-CITY-INLET 2300   51 54                N/A
WACHAPREAGUE VA  2300   54 59                N/A
THOMAS POINT MD  0000   52 57   70/  9/ 11 1019.0R
GOOSES REEF MD   0000   53 57   80/ 10/ 12 1018.3R   1/ 2
COVE POINT MD    2300   52                   N/A
SOLOMONS ISLAND  2300   54 60                N/A
BISHOPS HEAD MD  2300   54 58                N/A
PINEY POINT MD   2300           40/  6/  7   N/A
POTOMAC MD       0000   54 59   60/  8/ 10 1016.0R   1
CAMBRIDGE MD     2300   53 60                N/A
LEWISETTA VA     2300   55 60                N/A
RAPPAHANNOCK LGT 2312                      1016.4R
STINGRAY PT      2300   56 60   40/  6/ 10 1016.3R   1/ 2
YORK RVR RNG VA  2300   56                   N/A
YORKTOWN VA      2300   57 62                N/A
JAMESTOWN VA     0000   58 67   40/  4/  4   N/A     0
DOMINION TERM VA 2300   58                   N/A
KIPTOPEKE VA     2300      60                N/A
CHES BAY BRIDGE  2300   57 60                N/A
CAPE HENRY VA    2300   56                   N/A
CHESAPEAKE LGHT  2300   54      40/ 15/ 16 1016.4R
WILLOUBY STN VA  2300   57                   N/A
CAPE HENRY BUOY  2312      56                N/A     4/ 7
CAPE CHARLES BUO 2326      57                N/A     4/ 8   3/ 8
OFFSHORE WE BUOY 2321      54                N/A     5/ 8   3/ 8
64NM E OF VA BCH 2350   53 54  360/ 16/ 19 1015.0R   5/ 7   3/ 7
DUCK PIER NC     2300   55 67              1015.1R
44100 DUCK FRF   2324      58                N/A     4/ 7
44056 DUCK FRF   2311      58                N/A     4/ 8
OREGON INLET NC  2300   56 63              1015.2R
HATTERAS NC      2300   65 71              1014.2R
DIAMOND SHLS NC  2350   61 74   20/ 19/ 23 1014.8R   4/ 5   2/ 9
CAPE LOOKOUT NC  0000   67     350/ 12/ 13 1014.9R
$$



USA.gov is the U.S. government's official web portal to all federal, state and local government web resources and services.